Location: Boulin
(43.2500°N, 0.1333°E)
Time: 01:15:30
(UTC+00:00)

Cosmos 2369 - Pass Details

Date: 11 December 2025
Orbit: 839 x 854 km, 71.0° (Epoch: 17 January)

Event Time Altitude Azimuth Distance (km) Brightness Sun altitude
Rises 18:21:17 0° 193° (SSW) 3,404 7.2 -20.5°
Reaches altitude 10° 18:23:44 10° 190° (S) 2,474 6.4 -21.0°
Maximum altitude 18:29:21 64° 111° (ESE) 943 3.6 -22.0°
Enters shadow 18:31:01 44° 50° (NE) 1,166 4.0 -22.3°
